Track COSMOS 469 now! 10-day predictions COSMOS 469 is classified as:
1 05721U 71117A 21023.86117139 -.00000088 00000-0 21163-5 0 9991 2 05721 64.4866 79.3039 0052852 321.9283 37.8038 13.76029962466013